[[{"header":{"parameterUnit":"m.s-1","parameterCategory":2,"la1":30.2991,"la2":30.254,"lo1":-89.0895,"lo2":-89.0444,"dy":0.0017,"dx":0.0017,"nx":28,"ny":28,"refTime":"2025-01-24T09:00:00:Z","depth":"0","parameterNumber":2,"parameterNumberName":"U-component_of_CURRENTS"},"data":[0,0,0,0,0,0,0,0,0,0,0,0,0,0,0,0,0,0,0,0,0,0,0,0,0,0,0,0,0,0,0,0,0,0,0,0,0,0,0,0,0,0,0,0,0,0,0,0,0,0,0,0,0,0,0,0,0,0,0.4057,0.4058,0,0.4124,0.4125,0.4125,0.4121,0.412,0.412,0.4119,0.4079,0.4078,0.4078,0,0,0,0,0,0,0,0,0,0,0,0,0,0.3958,0.396,0.4057,0.4058,0.4059,0.4124,0.4125,0.4125,0.4121,0.412,0.4119,0.4118,0.4079,0.4079,0.4078,0,0,0,0,0,0,0,0,0,0,0,0,0,0.4008,0.396,0.4057,0.4067,0.4069,0.4124,0.4125,0.4125,0.4121,0.412,0.4119,0.4118,0.4079,0.4079,0.4078,0.4098,0,0,0.4076,0.4076,0,0,0,0,0,0,0,0,0.4005,0.4012,0.4064,0.4066,0.4068,0.4115,0.4075,0.4112,0.4122,0.4099,0.4119,0.4117,0.4083,0.4083,0.4096,0.4096,0.4094,0.4076,0.4076,0.4076,0.4076,0,0,0,0,0,0,0,0.4002,0.4009,0.4081,0.4066,0.4068,0.4079,0.4084,0.4083,0.4093,0.4101,0.4101,0.4113,0.4083,0.4096,0.4094,0.4093,0.4076,0.4076,0.4076,0.4075,0.4139,0.4141,0,0,0,0,0,0,0.3998,0.4006,0.4079,0.4084,0.4036,0.4082,0.4088,0.4099,0.4095,0.4095,0.4114,0.4112,0.4098,0.4095,0.4093,0.4135,0.4076,0.4075,0.4075,0.4137,0.414,0.4142,0,0,0,0,0,0,0.3996,0.4004,0.4077,0.4048,0.4058,0.4085,0.4098,0.4101,0.4119,0.4107,0.4104,0.4128,0.4097,0.4094,0.4105,0.4132,0.4075,0.4075,0.4135,0.4138,0.4141,0.4205,0,0,0,0,0,0,0.3993,0.4003,0.4009,0.4048,0.406,0.4116,0.4099,0.4103,0.4128,0.4127,0.4118,0.4113,0.4096,0.4107,0.4105,0.413,0.4074,0.4132,0.4136,0.414,0.4201,0.421,0.4218,0,0,0,0,0,0.3989,0.4002,0.4008,0.4017,0.4067,0.4117,0.4124,0.4137,0.413,0.4146,0.4143,0.4113,0.413,0.4108,0.4105,0.4131,0.4131,0.4135,0.414,0.4197,0.4208,0.4218,0,0,0,0,0,0,0.3954,0.4005,0.4012,0.4037,0.4077,0.4117,0.4135,0.4146,0.416,0.4156,0.4135,0.4132,0.4158,0.4139,0.4116,0.4164,0.4127,0.4131,0.4171,0.4182,0.4191,0.4224,0.4074,0,0,0,0,0,0.3953,0.3979,0.4027,0.4047,0.4071,0.4105,0.4126,0.4142,0.4162,0.4168,0.4161,0.4161,0.4178,0.4173,0.4183,0.42,0.4264,0.4218,0.4227,0.4234,0.4263,0.44,0.4425,0.4157,0.4157,0.4157,0,0,0.3939,0.3976,0.3985,0.4043,0.4074,0.4112,0.4115,0.4157,0.4186,0.416,0.4185,0.4194,0.4194,0.4223,0.4232,0.4205,0.4346,0.424,0.4246,0.4271,0.4408,0.4434,0.4458,0.416,0.4159,0.4159,0,0,0.3937,0.3968,0.399,0.4031,0.4091,0.4123,0.4138,0.4186,0.4204,0.4233,0.4237,0.4268,0.4263,0.429,0.4297,0.4362,0.4398,0.4356,0.4414,0.4547,0.4571,0.4592,0.4719,0.4751,0.4349,0.4349,0.4349,0,0.3917,0.3963,0.4004,0.4043,0.4082,0.4128,0.4167,0.42,0.4241,0.4283,0.4243,0.4325,0.4302,0.4387,0.4399,0.4383,0.447,0.4368,0.4561,0.4584,0.4605,0.4729,0.4764,0.4352,0.4352,0.4352,0.4351,0,0.3943,0.3977,0.4001,0.4067,0.4109,0.416,0.4216,0.4261,0.4283,0.4326,0.4413,0.4413,0.4469,0.4461,0.4437,0.4579,0.4598,0.4567,0.4536,0.4636,0.476,0.4796,0.4358,0.4356,0.4355,0.4354,0,0,0.3906,0.4,0.4006,0.4068,0.4135,0.4198,0.4244,0.4341,0.443,0.4447,0.4567,0.4572,0.4606,0.462,0.4619,0.4707,0.4904,0.4697,0.4702,0.4828,0.5225,0.5084,0.5109,0.492,0.4926,0.4931,0.5256,0,0.392,0.4025,0.4037,0.4134,0.4219,0.4261,0.4321,0.4411,0.4482,0.4609,0.4649,0.4756,0.4658,0.4718,0.4786,0.4882,0.5,0.482,0.5105,0.5114,0.4981,0.5146,0.4962,0.5222,0.529,0.5296,0.53,0,0.3957,0.4036,0.4136,0.426,0.4291,0.4337,0.4506,0.4561,0.4718,0.4777,0.4878,0.4932,0.5055,0.4973,0.5188,0.5085,0.5173,0.5235,0.5249,0.5122,0.5039,0.5131,0.5284,0.5077,0.5355,0.5351,0.5347,0,0.4032,0.4114,0.4217,0.4255,0.4378,0.4429,0.4495,0.4635,0.4692,0.4928,0.4999,0.5166,0.5236,0.5383,0.5426,0.5363,0.5682,0.5611,0.5586,0.5577,0.5477,0.5447,0.5464,0.5832,0.5832,0.5831,0.583,0,0.4096,0.4184,0.427,0.4346,0.4435,0.4524,0.463,0.4728,0.487,0.4946,0.5098,0.5178,0.5344,0.5488,0.5563,0.5666,0.5795,0.5656,0.567,0.5489,0.5458,0.5312,0.5227,0.5843,0.584,0.5838,0.5836,0,0.416,0.4235,0.4336,0.445,0.4479,0.455,0.4614,0.4695,0.486,0.4969,0.5043,0.5233,0.5424,0.5579,0.5834,0.5799,0.5795,0.5973,0.5735,0.5711,0.5414,0.534,0.5312,0.5149,0.6026,0.6025,0.6024,0,0.4211,0.428,0.4359,0.4365,0.4396,0.4485,0.4517,0.4667,0.4718,0.4947,0.4984,0.5241,0.535,0.5675,0.5774,0.598,0.5775,0.5867,0.568,0.5415,0.5349,0.5161,0.501,0.5609,0.5604,0.5601,0.5598,0,0.4235,0.4244,0.4284,0.4302,0.4328,0.4329,0.4397,0.443,0.4596,0.471,0.4841,0.4992,0.5311,0.5419,0.5684,0.5759,0.5548,0.579,0.5615,0.5112,0.4823,0.4662,0.5372,0.5566,0.5569,0.5571,0.5573,0.5574,0.4171,0.416,0.4176,0.4172,0.4182,0.4148,0.4105,0.4188,0.4251,0.4374,0.4606,0.4798,0.5069,0.5407,0.5445,0.5334,0.5334,0.5173,0.5149,0.5014,0.4697,0.5306,0.5417,0.5419,0.5421,0.5423,0.5425,0,0.4051,0.4052,0.4038,0.4,0.3933,0.3991,0.3978,0.3909,0.3913,0.4165,0.4291,0.4571,0.4715,0.4901,0.4927,0.4742,0.4568,0.4575,0.4291,0.4204,0.4864,0.4674,0.4505,0.4506,0.4506,0.4506,0.4506,0.4506,0.3987,0.3932,0.3925,0.3764,0.3721,0.356,0.351,0.3466,0.3582,0.3688,0.3873,0.4128,0.4393,0.4509,0.4335,0.4242,0.3894,0.375,0.3698,0.4161,0.4213,0.4263,0.4061,0.3766,0.3765,0.288,0.2873,0.2868]},{"header":{"parameterUnit":"m.s-1","parameterCategory":2,"la1":30.2991,"la2":30.254,"lo1":-89.0895,"lo2":-89.0444,"dy":0.0017,"dx":0.0017,"nx":28,"ny":28,"refTime":"2025-01-24T09:00:00:Z","depth":"0","parameterNumber":3,"parameterNumberName":"V-component_of_CURRENTS"},"data":[0,0,0,0,0,0,0,0,0,0,0,0,0,0,0,0,0,0,0,0,0,0,0,0,0,0,0,0,0,0,0,0,0,0,0,0,0,0,0,0,0,0,0,0,0,0,0,0,0,0,0,0,0,0,0,0,0,0,-0.0202,-0.0203,0,-0.0271,-0.0272,-0.0273,-0.0328,-0.0328,-0.0329,-0.0329,-0.0415,-0.0417,-0.0419,0,0,0,0,0,0,0,0,0,0,0,0,0,-0.0187,-0.0187,-0.0202,-0.0203,-0.0203,-0.0271,-0.0272,-0.0273,-0.0328,-0.0328,-0.0329,-0.0329,-0.0414,-0.0417,-0.0419,0,0,0,0,0,0,0,0,0,0,0,0,0,-0.0221,-0.0187,-0.0202,-0.0237,-0.024,-0.0271,-0.0272,-0.0274,-0.0328,-0.0328,-0.0329,-0.0329,-0.0414,-0.0416,-0.0419,-0.043,0,0,-0.0429,-0.043,0,0,0,0,0,0,0,0,-0.0219,-0.0222,-0.0231,-0.0234,-0.0238,-0.0289,-0.0298,-0.0326,-0.0328,-0.0298,-0.0329,-0.0329,-0.0372,-0.0379,-0.0395,-0.0434,-0.0438,-0.0429,-0.0431,-0.0432,-0.0433,0,0,0,0,0,0,0,-0.0216,-0.022,-0.0232,-0.0231,-0.0236,-0.0272,-0.0277,-0.0304,-0.0334,-0.03,-0.0304,-0.0307,-0.0375,-0.0392,-0.0397,-0.0439,-0.0429,-0.0432,-0.0434,-0.0435,-0.047,-0.0469,0,0,0,0,0,0,-0.0198,-0.0217,-0.023,-0.0234,-0.0226,-0.0271,-0.0277,-0.0275,-0.0334,-0.0342,-0.0306,-0.0309,-0.0386,-0.0393,-0.04,-0.0376,-0.0432,-0.0435,-0.0437,-0.047,-0.0469,-0.0468,0,0,0,0,0,0,-0.0197,-0.0198,-0.0227,-0.0225,-0.0231,-0.027,-0.0268,-0.0276,-0.0286,-0.0337,-0.0347,-0.0307,-0.0387,-0.0396,-0.0414,-0.0381,-0.0436,-0.0439,-0.0472,-0.047,-0.0469,-0.0352,0,0,0,0,0,0,-0.0196,-0.0197,-0.0192,-0.0224,-0.023,-0.0225,-0.0267,-0.0277,-0.0286,-0.029,-0.0341,-0.035,-0.0388,-0.0409,-0.0417,-0.0386,-0.0442,-0.0473,-0.0471,-0.0469,-0.0357,-0.0347,-0.0339,0,0,0,0,0,-0.0195,-0.0174,-0.0191,-0.0193,-0.022,-0.0224,-0.023,-0.0263,-0.0285,-0.0277,-0.0317,-0.0348,-0.0404,-0.0411,-0.0421,-0.039,-0.0473,-0.0471,-0.0469,-0.0362,-0.0349,-0.0339,0,0,0,0,0,0,-0.016,-0.0179,-0.0197,-0.0183,-0.0196,-0.0231,-0.0231,-0.0253,-0.028,-0.0288,-0.034,-0.0351,-0.0356,-0.0391,-0.0398,-0.0396,-0.0442,-0.0442,-0.0357,-0.0346,-0.0337,-0.0278,-0.0444,0,0,0,0,0,-0.015,-0.0141,-0.0165,-0.0152,-0.0158,-0.0194,-0.0202,-0.0221,-0.0248,-0.0261,-0.0296,-0.0333,-0.0356,-0.0365,-0.0397,-0.0394,-0.0375,-0.0381,-0.0371,-0.0363,-0.0323,-0.0274,-0.0255,-0.0462,-0.0462,-0.0462,0,0,-0.0131,-0.0141,-0.0136,-0.0145,-0.0164,-0.015,-0.02,-0.0201,-0.0185,-0.0265,-0.026,-0.0304,-0.0351,-0.0349,-0.0353,-0.0372,-0.0293,-0.036,-0.0353,-0.0316,-0.0269,-0.0249,-0.023,-0.046,-0.0461,-0.0461,0,0,-0.0077,-0.0099,-0.0072,-0.008,-0.0095,-0.0114,-0.0107,-0.0136,-0.0147,-0.0152,-0.0201,-0.0212,-0.0262,-0.027,-0.0285,-0.024,-0.0249,-0.0265,-0.0162,-0.0116,-0.0097,-0.008,-0.0014,0.0007,-0.0255,-0.0254,-0.0254,0,-0.0055,-0.0022,-0.0063,-0.004,-0.0029,-0.0089,-0.0047,-0.0069,-0.0098,-0.0072,-0.0134,-0.0147,-0.0212,-0.0162,-0.0169,-0.0212,-0.0185,-0.02,-0.0098,-0.0082,-0.0066,-0.0003,0.0019,-0.0249,-0.0249,-0.025,-0.025,0,0.0018,0.0043,0.0059,0.007,0.0075,0.0098,0.007,0.0078,0.0049,0.0044,0.0078,0.0001,0.0017,-0.003,-0.01,-0.0019,-0.0033,-0.0094,-0.0116,-0.0037,0.0022,0.0044,-0.024,-0.0242,-0.0244,-0.0245,0,0,0.0085,0.0108,0.0117,0.0165,0.0139,0.0174,0.019,0.023,0.0314,0.0242,0.0363,0.0257,0.0243,0.0225,0.0154,0.0158,0.0249,0.0075,0.0074,0.0162,0.0381,0.0296,0.031,0.0205,0.0209,0.0212,0.0386,0,0.0162,0.0254,0.0231,0.0333,0.0388,0.0348,0.04,0.0424,0.0434,0.0529,0.0462,0.0531,0.0334,0.0376,0.0341,0.0283,0.0309,0.021,0.0274,0.0277,0.0209,0.0333,0.0261,0.0402,0.0407,0.041,0.0413,0,0.0258,0.0311,0.0428,0.0525,0.0548,0.0601,0.0723,0.0761,0.0835,0.0855,0.0885,0.0852,0.0858,0.0689,0.0644,0.059,0.0507,0.0437,0.0441,0.0343,0.0232,0.0319,0.044,0.0133,0.0445,0.0443,0.044,0,0.0394,0.0465,0.0582,0.0604,0.0685,0.0759,0.0808,0.0886,0.0985,0.1107,0.1219,0.1186,0.1242,0.1105,0.0898,0.0804,0.0865,0.0729,0.0593,0.0587,0.0531,0.0513,0.0384,0.0748,0.0747,0.0747,0.0746,0,0.0522,0.0629,0.067,0.0752,0.0923,0.0924,0.1133,0.1177,0.1315,0.1492,0.1423,0.1566,0.1346,0.132,0.1077,0.0916,0.1015,0.0667,0.0641,0.0566,0.0549,0.0279,0.0117,0.0753,0.0752,0.0751,0.0749,0,0.0699,0.0714,0.0867,0.0963,0.1008,0.1147,0.1319,0.1469,0.1575,0.1818,0.1882,0.1917,0.1874,0.1643,0.1482,0.1196,0.0858,0.0944,0.0874,0.0833,0.0341,0.019,0.0113,0.0007,0.0837,0.0836,0.0835,0,0.0815,0.0904,0.1031,0.1116,0.1177,0.1355,0.1481,0.16,0.1763,0.202,0.2162,0.2231,0.2274,0.2012,0.1564,0.1227,0.0919,0.0909,0.068,0.0354,0.0168,0.0058,-0.0035,0.0674,0.0672,0.0671,0.067,0,0.1007,0.1038,0.1129,0.1291,0.1434,0.1617,0.1807,0.198,0.2151,0.236,0.2592,0.2664,0.2436,0.2075,0.1609,0.1297,0.0664,0.0861,0.0559,0.0076,-0.0077,-0.0207,0.0526,0.0655,0.0657,0.0658,0.0658,0.0659,0.1109,0.1192,0.1265,0.1439,0.1602,0.1826,0.2013,0.2223,0.25,0.2813,0.2872,0.3045,0.2495,0.1841,0.1407,0.0522,0.0581,0.0205,0.0076,0.0017,-0.0185,0.0516,0.0562,0.0563,0.0564,0.0565,0.0565,0,0.1159,0.1232,0.1394,0.1577,0.1775,0.1855,0.2178,0.2376,0.2696,0.3,0.32,0.3043,0.233,0.1587,0.0415,-0.0169,-0.038,-0.0487,-0.0679,-0.0716,-0.0057,-0.0175,-0.0329,-0.0329,-0.0329,-0.0328,-0.0328,-0.0328,0.1166,0.1274,0.1358,0.1653,0.1818,0.2099,0.2294,0.2598,0.2879,0.3205,0.3347,0.3463,0.2758,0.0737,-0.063,-0.0911,-0.1297,-0.1375,-0.1501,-0.1135,-0.1082,-0.1031,-0.1183,-0.1546,-0.1548,-0.2129,-0.2135,-0.214]}],[{"header":{"parameterUnit":"m.s-1","parameterCategory":2,"la1":30.2991,"la2":30.254,"lo1":-89.0895,"lo2":-89.0444,"dy":0.0017,"dx":0.0017,"nx":28,"ny":28,"refTime":"2025-01-24T09:00:00:Z","depth":"2","parameterNumber":2,"parameterNumberName":"U-component_of_CURRENTS"},"data":[0,0,0,0,0,0,0,0,0,0,0,0,0,0,0,0,0,0,0,0,0,0,0,0,0,0,0,0,0,0,0,0,0,0,0,0,0,0,0,0,0,0,0,0,0,0,0,0,0,0,0,0,0,0,0,0,0,0,0.3006,0.3007,0,0.3049,0.3049,0.3049,0.3061,0.3061,0.3062,0.3062,0.3101,0.3102,0.3102,0,0,0,0,0,0,0,0,0,0,0,0,0,0.2923,0.2924,0.3006,0.3007,0.3009,0.3049,0.3049,0.3049,0.3061,0.3061,0.3062,0.3062,0.3101,0.3102,0.3102,0,0,0,0,0,0,0,0,0,0,0,0,0,0.2955,0.2924,0.3006,0.3024,0.3027,0.3049,0.3049,0.3049,0.3061,0.3061,0.3062,0.3063,0.3101,0.3102,0.3103,0.3098,0,0,0.3106,0.3106,0,0,0,0,0,0,0,0,0.2953,0.2957,0.302,0.3023,0.3026,0.3056,0.3035,0.3068,0.3061,0.3041,0.3062,0.3063,0.309,0.3092,0.3089,0.31,0.3102,0.3106,0.3106,0.3107,0.3107,0,0,0,0,0,0,0,0.2951,0.2956,0.3017,0.3022,0.3025,0.3027,0.3031,0.304,0.3056,0.3043,0.3045,0.3061,0.309,0.3088,0.309,0.3102,0.3106,0.3107,0.3107,0.3108,0.3207,0.3208,0,0,0,0,0,0,0.2959,0.2954,0.3015,0.3019,0.2998,0.3028,0.3033,0.3041,0.3057,0.3062,0.306,0.3061,0.3086,0.3089,0.3092,0.3162,0.3107,0.3108,0.3109,0.3205,0.3207,0.3209,0,0,0,0,0,0,0.2957,0.2964,0.3014,0.2993,0.3,0.303,0.3038,0.3041,0.306,0.3071,0.3075,0.3079,0.3086,0.309,0.3131,0.3161,0.3108,0.3109,0.3202,0.3205,0.3208,0.3255,0,0,0,0,0,0,0.2954,0.2963,0.2976,0.2993,0.3002,0.3046,0.3038,0.3042,0.3071,0.3073,0.3088,0.3091,0.3087,0.313,0.3132,0.3161,0.311,0.32,0.3204,0.3207,0.3251,0.3259,0.3266,0,0,0,0,0,0.2951,0.2966,0.2976,0.2985,0.3017,0.3048,0.3052,0.307,0.3071,0.3086,0.3105,0.3091,0.3155,0.3132,0.3135,0.3165,0.3198,0.3203,0.3207,0.3248,0.3258,0.3266,0,0,0,0,0,0,0.2931,0.297,0.2981,0.3006,0.3036,0.3053,0.3069,0.3082,0.3105,0.3108,0.3112,0.3117,0.3166,0.3163,0.3137,0.3207,0.3176,0.3181,0.3206,0.3216,0.3223,0.3228,0.3111,0,0,0,0,0,0.2935,0.2959,0.2994,0.3015,0.3031,0.3052,0.3069,0.3083,0.3106,0.3116,0.3134,0.3155,0.3182,0.3197,0.3217,0.325,0.328,0.3274,0.3282,0.3288,0.3297,0.3386,0.3403,0.3224,0.3224,0.3224,0,0,0.293,0.2959,0.297,0.3014,0.3032,0.3059,0.3062,0.3093,0.3119,0.3117,0.3161,0.3184,0.3199,0.3242,0.3264,0.3245,0.3356,0.3294,0.3299,0.3304,0.3392,0.341,0.3425,0.3227,0.3226,0.3226,0,0,0.2931,0.296,0.2978,0.301,0.3056,0.3073,0.3089,0.3124,0.3145,0.3189,0.3202,0.325,0.328,0.3307,0.332,0.3383,0.3396,0.3389,0.3428,0.3515,0.353,0.3544,0.3606,0.3625,0.339,0.339,0.339,0,0.2927,0.2957,0.2989,0.3019,0.305,0.3083,0.311,0.3135,0.3184,0.3221,0.3213,0.3309,0.3311,0.3385,0.3399,0.34,0.3446,0.3387,0.3525,0.3539,0.3553,0.3613,0.3633,0.3393,0.3393,0.3392,0.3392,0,0.2939,0.2974,0.2988,0.3039,0.3073,0.3106,0.315,0.3194,0.3226,0.3266,0.3356,0.3379,0.3447,0.3449,0.3433,0.3535,0.3536,0.3527,0.3499,0.3574,0.3632,0.3652,0.3397,0.3396,0.3395,0.3394,0,0,0.291,0.2983,0.2991,0.3026,0.3091,0.3121,0.3176,0.3249,0.3316,0.3366,0.3463,0.3496,0.354,0.3559,0.3569,0.3619,0.3735,0.3609,0.3612,0.3665,0.3926,0.3808,0.3818,0.3759,0.3763,0.3766,0.3929,0,0.2914,0.2968,0.3007,0.3068,0.3101,0.3163,0.322,0.3294,0.3365,0.3471,0.3525,0.3616,0.3575,0.3626,0.3677,0.3729,0.3792,0.3692,0.385,0.3855,0.3736,0.3839,0.353,0.3639,0.3948,0.3952,0.3954,0,0.2912,0.2957,0.3006,0.3104,0.3126,0.3172,0.3295,0.336,0.3504,0.3567,0.3676,0.3733,0.3832,0.3784,0.3925,0.3869,0.3906,0.3929,0.3936,0.3822,0.3774,0.3616,0.3664,0.3988,0.3985,0.3983,0.3981,0,0.2881,0.296,0.3002,0.3033,0.314,0.319,0.3265,0.3397,0.3478,0.3655,0.3748,0.387,0.3962,0.4027,0.4061,0.4022,0.4205,0.4165,0.4098,0.4089,0.3854,0.3817,0.4281,0.4281,0.4281,0.428,0.428,0,0.2875,0.2915,0.2996,0.3031,0.3108,0.3191,0.3313,0.3406,0.3566,0.3677,0.3812,0.3906,0.4031,0.4134,0.4139,0.4181,0.4285,0.4129,0.4136,0.3859,0.3823,0.4138,0.4119,0.4286,0.4285,0.4284,0.4283,0,0.2828,0.2884,0.2941,0.3053,0.3096,0.3155,0.3327,0.3408,0.3581,0.3736,0.3798,0.3986,0.4108,0.4204,0.4325,0.4286,0.4326,0.4313,0.3965,0.3925,0.4135,0.4117,0.4276,0.4273,0.4271,0.4269,0.4268,0,0.28,0.2828,0.2939,0.2961,0.3012,0.3125,0.3197,0.339,0.3471,0.3744,0.379,0.3999,0.408,0.4232,0.4209,0.4247,0.4312,0.3973,0.3826,0.4151,0.4142,0.4127,0.4113,0.3544,0.3537,0.3531,0.3526,0,0.2738,0.2781,0.2822,0.2887,0.2952,0.304,0.316,0.3229,0.3448,0.3572,0.3713,0.3817,0.3994,0.3883,0.3957,0.392,0.3935,0.385,0.4329,0.3574,0.3468,0.3457,0.3465,0.3472,0.3478,0.3482,0.3485,0.3487,0.267,0.2679,0.2732,0.2789,0.2845,0.2899,0.2941,0.3047,0.3157,0.3282,0.3482,0.353,0.3624,0.3551,0.347,0.3421,0.3672,0.351,0.3526,0.3549,0.3416,0.3311,0.3261,0.3264,0.3268,0.3271,0.3274,0,0.2575,0.26,0.2626,0.2674,0.2669,0.2797,0.2854,0.2836,0.2866,0.3012,0.3099,0.2923,0.2898,0.2989,0.2837,0.286,0.2815,0.2746,0.2652,0.2709,0.2759,0.2581,0.2207,0.2203,0.2199,0.2196,0,0,0.252,0.2492,0.2519,0.2476,0.2539,0.2486,0.2504,0.249,0.2507,0.2472,0.2483,0.2731,0.289,0.2488,0.2467,0.2301,0.2475,0.222,0.3084,0.303,0.3074,0.3221,0.3015,0,0,0,0,0]},{"header":{"parameterUnit":"m.s-1","parameterCategory":2,"la1":30.2991,"la2":30.254,"lo1":-89.0895,"lo2":-89.0444,"dy":0.0017,"dx":0.0017,"nx":28,"ny":28,"refTime":"2025-01-24T09:00:00:Z","depth":"2","parameterNumber":3,"parameterNumberName":"V-component_of_CURRENTS"},"data":[0,0,0,0,0,0,0,0,0,0,0,0,0,0,0,0,0,0,0,0,0,0,0,0,0,0,0,0,0,0,0,0,0,0,0,0,0,0,0,0,0,0,0,0,0,0,0,0,0,0,0,0,0,0,0,0,0,0,0.015,0.015,0,0.0095,0.0094,0.0094,0.0047,0.0047,0.0046,0.0046,-0.0051,-0.0053,-0.0055,0,0,0,0,0,0,0,0,0,0,0,0,0,0.0164,0.0165,0.015,0.015,0.0149,0.0095,0.0094,0.0094,0.0048,0.0047,0.0046,0.0046,-0.005,-0.0052,-0.0055,0,0,0,0,0,0,0,0,0,0,0,0,0,0.0139,0.0165,0.0151,0.0119,0.0116,0.0095,0.0094,0.0093,0.0048,0.0047,0.0046,0.0045,-0.0049,-0.0052,-0.0055,-0.0059,0,0,-0.0065,-0.0066,0,0,0,0,0,0,0,0,0.0141,0.0139,0.0125,0.0121,0.0118,0.0077,0.0064,0.004,0.0048,0.0074,0.0046,0.0045,-0.0011,-0.0018,-0.0025,-0.0063,-0.0067,-0.0065,-0.0067,-0.0068,-0.0069,0,0,0,0,0,0,0,0.0142,0.014,0.0129,0.0124,0.012,0.009,0.0086,0.0059,0.0036,0.0071,0.0068,0.0062,-0.0014,-0.0022,-0.0028,-0.0069,-0.0065,-0.0068,-0.007,-0.0071,-0.0131,-0.0131,0,0,0,0,0,0,0.0153,0.0143,0.013,0.0127,0.0127,0.0091,0.0086,0.0091,0.0037,0.0028,0.0062,0.006,-0.0016,-0.0024,-0.0032,-0.0036,-0.0068,-0.0071,-0.0073,-0.0131,-0.0131,-0.0131,0,0,0,0,0,0,0.0153,0.0153,0.0133,0.0132,0.0128,0.0092,0.0097,0.009,0.0081,0.003,0.0021,0.006,-0.0017,-0.0027,-0.0054,-0.004,-0.0073,-0.0075,-0.0131,-0.0131,-0.0131,-0.0047,0,0,0,0,0,0,0.0154,0.0153,0.0159,0.0134,0.0128,0.0128,0.0098,0.009,0.0079,0.0075,0.0025,0.0016,-0.0019,-0.0049,-0.0058,-0.0045,-0.0078,-0.0132,-0.0131,-0.0131,-0.005,-0.0044,-0.0038,0,0,0,0,0,0.0155,0.0175,0.016,0.0158,0.0138,0.0128,0.0123,0.0094,0.0079,0.0082,0.0045,0.0017,-0.0052,-0.0052,-0.0061,-0.0049,-0.0132,-0.0131,-0.0131,-0.0053,-0.0045,-0.0039,0,0,0,0,0,0,0.0185,0.0171,0.0154,0.0168,0.0149,0.0121,0.0122,0.0101,0.0076,0.0071,0.0021,0.0009,-0.001,-0.0042,-0.004,-0.0067,-0.0097,-0.0098,-0.0034,-0.0028,-0.0022,0.0001,-0.008,0,0,0,0,0,0.0194,0.0203,0.018,0.0189,0.0184,0.0153,0.0145,0.0127,0.0101,0.0089,0.0053,0.0015,-0.0014,-0.003,-0.0063,-0.0074,-0.0111,-0.0075,-0.0069,-0.0063,-0.0052,-0.0096,-0.0092,-0.0128,-0.0128,-0.0129,0,0,0.0208,0.02,0.0205,0.0195,0.0179,0.0188,0.0147,0.0144,0.0148,0.0083,0.0076,0.0034,-0.0014,-0.0028,-0.004,-0.0053,-0.0074,-0.0062,-0.0057,-0.0049,-0.0095,-0.0091,-0.0088,-0.0128,-0.0128,-0.0128,0,0,0.0245,0.0235,0.0255,0.0247,0.023,0.0214,0.0217,0.0191,0.0176,0.0162,0.0117,0.0085,0.0041,0.0011,-0.001,0.0009,-0.0043,-0.0004,0.0047,0.0005,0.0008,0.001,-0.0034,-0.0036,0.0001,0.0002,0.0002,0,0.0259,0.0283,0.0258,0.0274,0.0276,0.0233,0.0257,0.024,0.0206,0.0199,0.017,0.0107,0.0062,0.0048,0.0051,0.0024,-0.001,0.0028,0.0014,0.0016,0.0016,-0.0029,-0.0033,0.0006,0.0005,0.0005,0.0004,0,0.0311,0.0327,0.034,0.0348,0.0347,0.036,0.0336,0.033,0.0304,0.0279,0.0254,0.019,0.0154,0.0132,0.0096,0.0084,0.0054,0.0027,0.0002,0.0025,-0.0025,-0.003,0.0012,0.001,0.0009,0.0008,0,0,0.035,0.0373,0.0377,0.0398,0.0389,0.04,0.0407,0.0404,0.0419,0.0365,0.0374,0.0307,0.0266,0.024,0.0187,0.0147,0.0115,0.0096,0.0092,0.0062,0.002,-0.0025,-0.0036,0.0085,0.0084,0.0084,-0.0018,0,0.0396,0.045,0.0446,0.0498,0.0525,0.0498,0.0516,0.0504,0.0479,0.0474,0.0401,0.0384,0.031,0.0296,0.0245,0.0151,0.0105,0.0145,-0.0007,-0.0012,-0.0047,-0.0042,-0.0003,-0.0092,-0.0024,-0.0025,-0.0025,0,0.0447,0.0478,0.0537,0.0583,0.0593,0.0616,0.0639,0.0654,0.0628,0.0607,0.0566,0.0504,0.0442,0.0375,0.0227,0.0256,0.0148,0.0066,0.006,-0.0012,-0.0066,-0.0106,-0.0105,-0.0035,-0.0034,-0.0034,-0.0033,0,0.0491,0.0545,0.0598,0.061,0.0649,0.0673,0.0697,0.0692,0.0724,0.0695,0.0702,0.0606,0.057,0.0426,0.0243,0.0237,0.0073,0.004,-0.0103,-0.0108,-0.0119,-0.0124,-0.0065,-0.0065,-0.0065,-0.0064,-0.0064,0,0.054,0.0584,0.0626,0.0656,0.0733,0.0737,0.0813,0.0815,0.0836,0.0885,0.0781,0.0786,0.0581,0.0456,0.028,0.0071,0.0094,-0.0092,-0.0135,-0.009,-0.0091,-0.0077,-0.0077,-0.0068,-0.0067,-0.0067,-0.0066,0,0.0573,0.0597,0.067,0.0729,0.0756,0.0813,0.0906,0.0962,0.0963,0.1022,0.1019,0.0923,0.076,0.0533,0.0298,0.0129,-0.0073,-0.0156,-0.0093,-0.0127,-0.0234,-0.0229,-0.0317,-0.0319,-0.0321,-0.0323,-0.0324,0,0.0592,0.0633,0.0728,0.0788,0.0818,0.0909,0.098,0.1022,0.1094,0.1109,0.1149,0.1011,0.0939,0.0568,0.0243,-0.0075,-0.011,-0.0254,-0.0264,-0.0226,-0.0259,-0.025,-0.0243,-0.0249,-0.025,-0.025,-0.0251,0,0.0639,0.0672,0.0736,0.0868,0.0955,0.106,0.1167,0.1243,0.1299,0.1342,0.1378,0.1321,0.0963,0.0652,0.0199,-0.0016,-0.0202,-0.0277,-0.0251,-0.0191,-0.017,-0.02,-0.0193,-0.0256,-0.0255,-0.0255,-0.0254,-0.0254,0.0677,0.0737,0.0842,0.0964,0.1075,0.1212,0.1319,0.1427,0.1553,0.163,0.1558,0.148,0.1103,0.0537,0.0152,-0.0253,-0.024,-0.0367,-0.0361,-0.0356,-0.033,-0.0314,-0.0422,-0.0422,-0.0422,-0.0423,-0.0423,0,0.0739,0.082,0.094,0.1098,0.1235,0.128,0.1452,0.1556,0.1715,0.1751,0.1772,0.1417,0.1049,0.0614,0.0019,-0.0339,-0.0348,-0.045,-0.0372,-0.0365,-0.0359,-0.033,-0.0424,-0.0424,-0.0425,-0.0426,0,0,0.0781,0.0909,0.0977,0.1215,0.1331,0.1515,0.162,0.1752,0.1828,0.1874,0.1823,0.1705,0.1178,0.0753,0.026,-0.0076,-0.0133,-0.0144,-0.0107,0.0051,0.0062,-0.0279,-0.0224,0,0,0,0,0]}],[{"header":{"parameterUnit":"m.s-1","parameterCategory":2,"la1":30.2991,"la2":30.254,"lo1":-89.0895,"lo2":-89.0444,"dy":0.0017,"dx":0.0017,"nx":28,"ny":28,"refTime":"2025-01-24T09:00:00:Z","depth":"4","parameterNumber":2,"parameterNumberName":"U-component_of_CURRENTS"},"data":[0,0,0,0,0,0,0,0,0,0,0,0,0,0,0,0,0,0,0,0,0,0,0,0,0,0,0,0,0,0,0,0,0,0,0,0,0,0,0,0,0,0,0,0,0,0,0,0,0,0,0,0,0,0,0,0,0,0,0.1825,0.1826,0,0.1906,0.1906,0.1907,0.1974,0.1975,0.1976,0.1977,0.209,0.2092,0.2094,0,0,0,0,0,0,0,0,0,0,0,0,0,0.1712,0.1713,0.1825,0.1826,0.1827,0.1906,0.1906,0.1907,0.1974,0.1975,0.1976,0.1977,0.209,0.2092,0.2094,0,0,0,0,0,0,0,0,0,0,0,0,0,0.177,0.1714,0.1825,0.1872,0.1878,0.1905,0.1906,0.1907,0.1973,0.1975,0.1976,0.1978,0.2089,0.2092,0.2095,0.2084,0,0,0.2104,0.2106,0,0,0,0,0,0,0,0,0.1767,0.1774,0.1864,0.1869,0.1875,0.1934,0.1908,0.1969,0.1973,0.1934,0.1977,0.1978,0.2042,0.2049,0.2056,0.209,0.2094,0.2105,0.2107,0.2108,0.2109,0,0,0,0,0,0,0,0.1763,0.1771,0.1854,0.1865,0.1872,0.1884,0.1894,0.192,0.1976,0.1937,0.1943,0.1957,0.2045,0.2053,0.2059,0.2096,0.2105,0.2107,0.2109,0.2111,0.2262,0.2264,0,0,0,0,0,0,0.1759,0.1767,0.1851,0.1856,0.1827,0.1885,0.1896,0.1911,0.1976,0.1988,0.1955,0.1959,0.2047,0.2055,0.2064,0.2176,0.2108,0.2111,0.2113,0.2259,0.2262,0.2264,0,0,0,0,0,0,0.1756,0.1765,0.1848,0.1816,0.1828,0.1886,0.1902,0.1912,0.1963,0.199,0.2002,0.2001,0.2048,0.2059,0.2129,0.2177,0.2112,0.2115,0.2257,0.226,0.2263,0.2324,0,0,0,0,0,0,0.1752,0.1764,0.1789,0.1816,0.183,0.1892,0.1901,0.1912,0.1968,0.1975,0.2032,0.2042,0.205,0.2124,0.2132,0.218,0.2118,0.2254,0.2258,0.2262,0.2319,0.2329,0.2337,0,0,0,0,0,0.1748,0.177,0.1789,0.1801,0.1857,0.1894,0.1903,0.1946,0.1969,0.1996,0.2041,0.2042,0.2155,0.2128,0.2137,0.2187,0.2252,0.2257,0.2262,0.2315,0.2327,0.2337,0,0,0,0,0,0,0.1737,0.178,0.1802,0.1838,0.1878,0.1907,0.1943,0.1967,0.2022,0.2045,0.2066,0.2078,0.216,0.2163,0.2133,0.2243,0.2205,0.2212,0.2243,0.2254,0.2263,0.2263,0.212,0,0,0,0,0,0.1745,0.1776,0.1815,0.185,0.1874,0.1915,0.1943,0.1975,0.2018,0.2045,0.2086,0.2133,0.2177,0.2209,0.2245,0.23,0.2306,0.234,0.2349,0.2357,0.2364,0.2423,0.2438,0.228,0.228,0.228,0,0,0.1752,0.178,0.18,0.1851,0.1888,0.1927,0.1937,0.1994,0.2038,0.2048,0.2134,0.217,0.22,0.2268,0.2304,0.2283,0.2402,0.2363,0.2369,0.2372,0.2429,0.2445,0.2458,0.2283,0.2283,0.2282,0,0,0.1768,0.1809,0.1839,0.1875,0.1938,0.1964,0.1989,0.2046,0.209,0.2162,0.2187,0.2251,0.2317,0.2348,0.2369,0.2448,0.2449,0.247,0.2515,0.2573,0.2586,0.2598,0.2611,0.2623,0.2472,0.2472,0.2472,0,0.178,0.1819,0.1855,0.1892,0.1931,0.1984,0.2027,0.2072,0.2149,0.2191,0.2205,0.2327,0.2352,0.2431,0.2461,0.2468,0.249,0.2469,0.2584,0.2596,0.2607,0.2617,0.263,0.2476,0.2475,0.2475,0.2475,0,0.1804,0.1855,0.1879,0.1944,0.1987,0.2038,0.2098,0.2162,0.2222,0.2267,0.2376,0.2417,0.2488,0.251,0.2511,0.2608,0.2593,0.2588,0.2553,0.2626,0.2632,0.2645,0.2481,0.248,0.2479,0.2478,0,0,0.1786,0.1878,0.1894,0.1931,0.2023,0.2053,0.2142,0.2226,0.2293,0.2378,0.2465,0.2544,0.2583,0.2609,0.263,0.2678,0.2764,0.2674,0.2676,0.2679,0.2877,0.2701,0.2697,0.2792,0.2795,0.2797,0.2844,0,0.1804,0.1868,0.1919,0.1997,0.2036,0.2117,0.2191,0.2278,0.2359,0.2456,0.2527,0.2621,0.2616,0.2669,0.2719,0.2767,0.2804,0.2751,0.2812,0.2812,0.2642,0.2708,0.2807,0.2853,0.2856,0.2858,0.2859,0,0.1806,0.1853,0.1925,0.2025,0.2054,0.2114,0.224,0.2316,0.2456,0.2528,0.2632,0.2693,0.2797,0.2777,0.2888,0.2864,0.2877,0.2894,0.2896,0.272,0.266,0.277,0.2881,0.288,0.2878,0.2876,0.2875,0,0.1746,0.1854,0.1911,0.1945,0.2068,0.2129,0.221,0.2345,0.2424,0.2588,0.2662,0.2787,0.2869,0.2925,0.2968,0.2951,0.3068,0.304,0.2884,0.287,0.2986,0.2973,0.3104,0.3104,0.3104,0.3104,0.3104,0,0.1715,0.1767,0.1894,0.1919,0.2005,0.2109,0.222,0.2317,0.2473,0.256,0.27,0.2775,0.292,0.2996,0.3009,0.2982,0.3103,0.2898,0.288,0.3007,0.2997,0.2993,0.2979,0.3106,0.3105,0.3105,0.3105,0,0.1624,0.1716,0.1783,0.1922,0.1974,0.2035,0.221,0.2276,0.2449,0.2568,0.2629,0.281,0.2907,0.2998,0.3095,0.3014,0.3017,0.297,0.3093,0.3081,0.2764,0.2754,0.2793,0.2788,0.2783,0.2779,0.2775,0,0.1576,0.1603,0.1751,0.1792,0.186,0.1978,0.2049,0.2242,0.2313,0.2552,0.2582,0.2756,0.2847,0.2838,0.2952,0.2964,0.2929,0.2901,0.283,0.2758,0.2738,0.2735,0.2731,0.2768,0.2767,0.2765,0.2764,0,0.1472,0.1542,0.159,0.1676,0.1757,0.1838,0.1961,0.201,0.2224,0.2397,0.2482,0.2549,0.2649,0.2724,0.2762,0.2763,0.2908,0.285,0.2859,0.2793,0.2728,0.2712,0.2714,0.2748,0.275,0.2752,0.2753,0,0.1394,0.1399,0.1473,0.1537,0.1625,0.1667,0.1761,0.1855,0.1966,0.2235,0.2257,0.2439,0.2616,0.262,0.2652,0.265,0.2604,0.2509,0.2535,0.2554,0.2457,0.2339,0.223,0,0,0,0,0,0.1311,0.1297,0.1326,0.1386,0.1461,0.1523,0.1679,0.1783,0.2003,0.1998,0.2129,0.221,0.229,0.2392,0.2341,0.254,0.2607,0.2469,0.2508,0.2657,0.2676,0.2585,0,0,0,0,0,0,0.1249,0.1269,0.1271,0.1243,0.1257,0.1329,0.1428,0.1576,0.1602,0.1832,0.189,0.2059,0.2171,0.2281,0.2289,0.2318,0.2294,0.2592,0.2586,0.2646,0.2663,0.2678,0.2592,0,0,0,0,0]},{"header":{"parameterUnit":"m.s-1","parameterCategory":2,"la1":30.2991,"la2":30.254,"lo1":-89.0895,"lo2":-89.0444,"dy":0.0017,"dx":0.0017,"nx":28,"ny":28,"refTime":"2025-01-24T09:00:00:Z","depth":"4","parameterNumber":3,"parameterNumberName":"V-component_of_CURRENTS"},"data":[0,0,0,0,0,0,0,0,0,0,0,0,0,0,0,0,0,0,0,0,0,0,0,0,0,0,0,0,0,0,0,0,0,0,0,0,0,0,0,0,0,0,0,0,0,0,0,0,0,0,0,0,0,0,0,0,0,0,0.0154,0.0154,0,0.0116,0.0116,0.0116,0.0091,0.009,0.009,0.009,0.0024,0.0022,0.0021,0,0,0,0,0,0,0,0,0,0,0,0,0,0.0163,0.0163,0.0154,0.0154,0.0153,0.0117,0.0116,0.0115,0.0091,0.009,0.009,0.009,0.0024,0.0023,0.0021,0,0,0,0,0,0,0,0,0,0,0,0,0,0.0146,0.0163,0.0154,0.0136,0.0134,0.0117,0.0116,0.0115,0.0091,0.009,0.009,0.009,0.0025,0.0023,0.002,0.001,0,0,0.0013,0.0012,0,0,0,0,0,0,0,0,0.0147,0.0145,0.014,0.0138,0.0135,0.0108,0.0095,0.0079,0.0091,0.0107,0.009,0.009,0.005,0.0045,0.0039,0.0007,0.0005,0.0013,0.0011,0.001,0.001,0,0,0,0,0,0,0,0.0148,0.0147,0.0139,0.0139,0.0137,0.0116,0.0114,0.0092,0.008,0.0106,0.0104,0.01,0.0048,0.0041,0.0037,0.0004,0.0013,0.0011,0.0009,0.0008,-0.0046,-0.0046,0,0,0,0,0,0,0.0155,0.0148,0.014,0.0138,0.0141,0.0116,0.0113,0.0117,0.0081,0.0075,0.01,0.0099,0.0046,0.004,0.0035,0.0028,0.001,0.0008,0.0007,-0.0046,-0.0046,-0.0046,0,0,0,0,0,0,0.0156,0.0155,0.0142,0.0142,0.0138,0.0117,0.012,0.0116,0.0112,0.0077,0.007,0.01,0.0045,0.0038,0.0019,0.0025,0.0007,0.0005,-0.0046,-0.0046,-0.0046,0.0011,0,0,0,0,0,0,0.0156,0.0156,0.0162,0.0142,0.0139,0.0138,0.0121,0.0116,0.011,0.0108,0.0075,0.0068,0.0044,0.0023,0.0017,0.0022,0.0003,-0.0046,-0.0046,-0.0046,0.0009,0.0012,0.0016,0,0,0,0,0,0.0157,0.017,0.0163,0.0162,0.0148,0.0138,0.0135,0.0118,0.011,0.0112,0.0089,0.0069,0.0018,0.0021,0.0014,0.0018,-0.0046,-0.0046,-0.0046,0.0007,0.0012,0.0016,0,0,0,0,0,0,0.0178,0.0168,0.016,0.0169,0.0156,0.0134,0.0136,0.0123,0.0106,0.0106,0.0071,0.0063,0.0047,0.0024,0.0028,0.0001,-0.0018,-0.002,0.0025,0.0029,0.0032,0.0045,0.0001,0,0,0,0,0,0.0185,0.0193,0.0176,0.0183,0.018,0.0158,0.0153,0.0142,0.0124,0.0117,0.0093,0.0065,0.0041,0.0029,0.0004,-0.0008,-0.0046,-0.0012,-0.0008,-0.0005,-0.0001,-0.0054,-0.0055,-0.0046,-0.0046,-0.0046,0,0,0.0195,0.019,0.0194,0.0188,0.0177,0.0181,0.0155,0.0153,0.0155,0.0112,0.0108,0.0077,0.0039,0.0025,0.0016,0.0008,-0.0029,-0.0005,-0.0002,0.0001,-0.0054,-0.0055,-0.0056,-0.0046,-0.0046,-0.0046,0,0,0.0219,0.0215,0.0229,0.0223,0.0213,0.0201,0.0203,0.0185,0.0176,0.0166,0.0133,0.0107,0.0075,0.0048,0.003,0.0036,-0.001,0.0028,0.0059,0.0008,0.0007,0.0005,-0.0049,-0.0056,0.0032,0.0032,0.0032,0,0.023,0.0245,0.023,0.0241,0.0242,0.0214,0.0229,0.0216,0.0193,0.0186,0.0173,0.0116,0.0085,0.006,0.0064,0.0045,0.0007,0.0049,0.0013,0.0011,0.0008,-0.0047,-0.0055,0.0035,0.0035,0.0034,0.0034,0,0.026,0.0273,0.0282,0.0288,0.0288,0.0296,0.0279,0.0275,0.026,0.024,0.0213,0.0165,0.0132,0.0116,0.0094,0.0064,0.0039,0.0023,0.0005,0.0011,-0.0048,-0.0058,0.0039,0.0038,0.0037,0.0036,0,0,0.0281,0.03,0.0304,0.0319,0.0316,0.0322,0.0327,0.032,0.0323,0.0287,0.0278,0.0229,0.0197,0.0174,0.0135,0.0092,0.004,0.0058,0.0054,0.001,-0.0078,-0.007,-0.0081,0.0018,0.0017,0.0016,-0.0114,0,0.0308,0.0344,0.0345,0.0381,0.0397,0.0384,0.0394,0.0384,0.0362,0.0345,0.0285,0.0262,0.0221,0.0206,0.0155,0.0071,0.0019,0.0077,-0.0082,-0.0087,-0.0076,-0.009,0.0013,-0.0122,-0.0124,-0.0125,-0.0127,0,0.0334,0.0358,0.0399,0.0433,0.0441,0.0459,0.0471,0.0479,0.0444,0.0423,0.038,0.0329,0.0263,0.0228,0.0081,0.0121,0.0028,-0.0043,-0.005,-0.0067,-0.0096,-0.013,-0.0144,-0.0143,-0.0142,-0.014,-0.0139,0,0.0354,0.0395,0.0433,0.0443,0.0474,0.0495,0.0514,0.0502,0.052,0.0473,0.0467,0.0372,0.0331,0.0205,0.0063,0.0069,-0.0107,-0.0122,-0.0208,-0.0209,-0.0202,-0.0199,-0.0233,-0.0232,-0.0232,-0.0232,-0.0231,0,0.0375,0.0407,0.045,0.0471,0.0529,0.0536,0.0587,0.0583,0.0584,0.0607,0.0514,0.0498,0.0324,0.0208,0.0069,-0.0096,-0.0109,-0.0207,-0.0241,-0.0176,-0.0169,-0.0209,-0.0205,-0.0237,-0.0236,-0.0235,-0.0234,0,0.0385,0.0409,0.0464,0.0516,0.0541,0.0585,0.0659,0.0693,0.0678,0.0701,0.0692,0.0585,0.0434,0.0248,0.0035,-0.0076,-0.0242,-0.0301,-0.0222,-0.0249,-0.0315,-0.0306,-0.041,-0.041,-0.0411,-0.0412,-0.0412,0,0.0392,0.0422,0.0505,0.0558,0.0588,0.0659,0.0716,0.074,0.078,0.076,0.0773,0.0639,0.0545,0.025,0.0046,-0.0234,-0.0268,-0.0365,-0.0336,-0.031,-0.0333,-0.0323,-0.0314,-0.0413,-0.0413,-0.0414,-0.0414,0,0.0419,0.0451,0.0502,0.0609,0.0684,0.0768,0.0847,0.0882,0.0908,0.0889,0.0845,0.0689,0.0512,0.0273,0.0047,-0.0149,-0.0306,-0.0372,-0.0372,-0.0346,-0.0315,-0.0335,-0.0325,-0.0416,-0.0416,-0.0415,-0.0415,0,0.0448,0.0493,0.0573,0.0664,0.0765,0.0856,0.0891,0.0941,0.0975,0.0947,0.0931,0.0732,0.0614,0.0316,0.0114,-0.0086,-0.0132,-0.0193,-0.0203,-0.0203,-0.0102,-0.003,-0.0075,0,0,0,0,0,0.0476,0.0536,0.0628,0.0733,0.0831,0.0889,0.0976,0.1,0.1015,0.1001,0.0972,0.0811,0.0511,0.0377,0.0181,0.009,-0.0178,-0.0148,-0.0255,-0.0429,-0.0426,-0.0341,0,0,0,0,0,0,0.0502,0.0588,0.0632,0.0774,0.0852,0.0965,0.102,0.1031,0.1024,0.1003,0.085,0.0762,0.0471,0.0626,0.0178,0.0114,0.002,-0.0294,-0.0298,-0.043,-0.0428,-0.0426,-0.0337,0,0,0,0,0]}]]